Weather History for Liberal, KS

Change the Weather History Date:

Friday, November 30, 2012

  Actual Average Record
Temperature  
Mean Temperature 46 °F -  
Max Temperature 66 °F 51 °F 76 °F (1970)
Min Temperature 26 °F 25 °F 6 °F (2004)
Degree Days  
Heating Degree Days 19    
Moisture  
Dew Point 25 °F    
Average Humidity 47    
Maximum Humidity 66    
Minimum Humidity 27    
Precipitation  
Precipitation 0.00 in - - ()
Sea Level Pressure  
Sea Level Pressure 29.99 in    
Wind  
Wind Speed 6 mph (ENE)    
Max Wind Speed 12 mph    
Max Gust Speed -    
Visibility 10 miles    
Events      
Averages and records for this station are not official NWS values.
T = Trace of Precipitation, MM = Missing Value Source: NWS Daily Summary

Daily Weather History Graph

Daily Weather History Graph

Search for Another Location

Airport:

Trip Planner

Search our weather history database for the weather conditions in past years. The results will help you decide how hot, cold, wet, or windy it might be!

Date:

Astronomy

Nov. 30, 2012 Rise Set
Actual Time 7:38 AM CST 5:27 PM CST
Civil Twilight 7:09 AM CST 5:55 PM CST
Nautical Twilight 6:37 AM CST 6:27 PM CST
Astronomical Twilight 6:06 AM CST 6:59 PM CST
Moon 7:23 PM CST (11/30) 9:11 AM CST (11/30)
Length of Visible Light 10h 46m
Length of Day
9h 49m
Waning Gibbous, 96% of the Moon is Illuminated
Nov 30
Waning Gibbous
Dec 6
Last Quarter
Dec 13
New
Dec 19
First Quarter
Dec 28
Full

Hourly Weather History & Observations

Time (CST) Temp. Windchill Dew Point Humidity Pressure Visibility Wind Dir Wind Speed Gust Speed Precip Events Conditions
12:15 AM 32.0 °F - 14.0 °F 48% 30.02 in 10.0 mi Calm Calm - N/A   Clear
12:35 AM 33.8 °F - 14.0 °F 44% 30.02 in 10.0 mi Calm Calm - N/A   Clear
12:55 AM 32.0 °F - 14.0 °F 48% 30.02 in 10.0 mi Calm Calm - N/A   Clear
1:15 AM 30.2 °F 24.3 °F 12.2 °F 47% 30.01 in 10.0 mi NNW 5.8 mph - N/A   Clear
1:35 AM 30.2 °F 23.4 °F 14.0 °F 51% 30.01 in 10.0 mi North 6.9 mph - N/A   Clear
1:55 AM 30.2 °F 21.9 °F 14.0 °F 51% 30.01 in 10.0 mi NNW 9.2 mph - N/A   Clear
2:15 AM 32.0 °F 26.4 °F 15.8 °F 51% 30.01 in 10.0 mi NNW 5.8 mph - N/A   Clear
2:35 AM 30.2 °F 22.6 °F 14.0 °F 51% 30.02 in 10.0 mi NNW 8.1 mph - N/A   Clear
2:55 AM 30.2 °F 22.6 °F 14.0 °F 51% 30.02 in 10.0 mi NNW 8.1 mph - N/A   Clear
3:15 AM 28.4 °F 21.2 °F 14.0 °F 55% 30.02 in 10.0 mi North 6.9 mph - N/A   Clear
3:35 AM 28.4 °F 22.2 °F 14.0 °F 55% 30.02 in 10.0 mi NNW 5.8 mph - N/A   Clear
3:55 AM 28.4 °F 22.2 °F 12.2 °F 51% 30.02 in 10.0 mi NNW 5.8 mph - N/A   Clear
4:15 AM 26.6 °F 20.0 °F 12.2 °F 55% 30.02 in 10.0 mi NNW 5.8 mph - N/A   Clear
4:35 AM 28.4 °F 23.3 °F 12.2 °F 51% 30.02 in 10.0 mi NNW 4.6 mph - N/A   Clear
4:55 AM 28.4 °F 19.7 °F 14.0 °F 55% 30.01 in 10.0 mi NW 9.2 mph - N/A   Clear
5:15 AM 28.4 °F 24.6 °F 14.0 °F 55% 30.01 in 10.0 mi WNW 3.5 mph - N/A   Clear
5:35 AM 28.4 °F 22.2 °F 12.2 °F 51% 30.02 in 10.0 mi NW 5.8 mph - N/A   Clear
5:55 AM 28.4 °F 21.2 °F 12.2 °F 51% 30.03 in 10.0 mi NNW 6.9 mph - N/A   Clear
6:15 AM 28.4 °F 20.4 °F 12.2 °F 51% 30.04 in 10.0 mi NNW 8.1 mph - N/A   Clear
6:35 AM 28.4 °F 20.4 °F 14.0 °F 55% 30.04 in 10.0 mi NNW 8.1 mph - N/A   Clear
6:55 AM 28.4 °F 19.7 °F 12.2 °F 51% 30.05 in 10.0 mi NNW 9.2 mph - N/A   Clear
7:15 AM 28.4 °F 19.7 °F 12.2 °F 51% 30.06 in 10.0 mi NW 9.2 mph - N/A   Clear
7:35 AM 28.4 °F 21.2 °F 14.0 °F 55% 30.06 in 10.0 mi WNW 6.9 mph - N/A   Clear
7:55 AM 28.4 °F 20.4 °F 14.0 °F 55% 30.06 in 9.0 mi NW 8.1 mph - N/A   Clear
8:15 AM 30.2 °F 24.3 °F 15.8 °F 55% 30.05 in 10.0 mi NNW 5.8 mph - N/A   Clear
8:35 AM 33.8 °F 28.6 °F 15.8 °F 48% 30.06 in 10.0 mi NNW 5.8 mph - N/A   Clear
8:55 AM 35.6 °F 29.9 °F 17.6 °F 48% 30.06 in 10.0 mi NNW 6.9 mph - N/A   Clear
9:15 AM 39.2 °F 34.2 °F 19.4 °F 45% 30.07 in 10.0 mi North 6.9 mph - N/A   Clear
9:35 AM 42.8 °F 38.0 °F 19.4 °F 39% 30.07 in 10.0 mi NNE 8.1 mph - N/A   Clear
9:55 AM 46.4 °F 42.9 °F 21.2 °F 37% 30.07 in 10.0 mi NE 6.9 mph - N/A   Clear
10:15 AM 48.2 °F - 21.2 °F 34% 30.07 in 10.0 mi ENE 5.8 mph - N/A   Clear
10:35 AM 51.8 °F - 24.8 °F 35% 30.06 in 10.0 mi ENE 6.9 mph - N/A   Clear
10:55 AM 53.6 °F - 24.8 °F 33% 30.06 in 10.0 mi ENE 6.9 mph - N/A   Clear
11:15 AM 55.4 °F - 24.8 °F 31% 30.07 in 10.0 mi NE 4.6 mph - N/A   Clear
11:35 AM 55.4 °F - 24.8 °F 31% 30.06 in 10.0 mi NE 5.8 mph - N/A   Clear
11:55 AM 57.2 °F - 24.8 °F 29% 30.04 in 9.0 mi East 6.9 mph - N/A   Clear
12:15 PM 57.2 °F - 26.6 °F 31% 30.04 in 10.0 mi East 4.6 mph - N/A   Clear
12:35 PM 60.8 °F - 26.6 °F 27% 30.02 in 10.0 mi ENE 3.5 mph - N/A   Clear
12:55 PM 60.8 °F - 28.4 °F 29% 30.01 in 10.0 mi East 4.6 mph - N/A   Clear
1:15 PM 62.6 °F - 28.4 °F 27% 29.99 in 10.0 mi Calm Calm - N/A   Clear
1:35 PM 64.4 °F - 30.2 °F 28% 29.97 in 10.0 mi ESE 9.2 mph - N/A   Clear
1:55 PM 64.4 °F - 32.0 °F 30% 29.97 in 10.0 mi ESE 9.2 mph - N/A   Clear
2:15 PM 64.4 °F - 33.8 °F 32% 29.96 in 10.0 mi SE 10.4 mph - N/A   Clear
2:35 PM 66.2 °F - 33.8 °F 30% 29.95 in 10.0 mi ESE 11.5 mph - N/A   Clear
2:55 PM 66.2 °F - 33.8 °F 30% 29.93 in 10.0 mi SE 10.4 mph - N/A   Clear
3:15 PM 66.2 °F - 33.8 °F 30% 29.94 in 10.0 mi SSE 11.5 mph - N/A   Clear
3:35 PM 64.4 °F - 35.6 °F 34% 29.94 in 10.0 mi SE 11.5 mph - N/A   Clear
3:55 PM 64.4 °F - 35.6 °F 34% 29.94 in 10.0 mi SE 10.4 mph - N/A   Clear
4:15 PM 64.4 °F - 35.6 °F 34% 29.94 in 10.0 mi SE 8.1 mph - N/A   Clear
4:35 PM 62.6 °F - 35.6 °F 37% 29.93 in 10.0 mi ESE 9.2 mph - N/A   Clear
4:55 PM 62.6 °F - 35.6 °F 37% 29.93 in 10.0 mi ESE 11.5 mph - N/A   Clear
5:15 PM 60.8 °F - 35.6 °F 39% 29.93 in 10.0 mi ESE 11.5 mph - N/A   Clear
5:35 PM 59.0 °F - 35.6 °F 42% 29.93 in 10.0 mi ESE 10.4 mph - N/A   Clear
5:55 PM 57.2 °F - 35.6 °F 44% 29.93 in 10.0 mi ESE 9.2 mph - N/A   Clear
6:15 PM 55.4 °F - 35.6 °F 47% 29.93 in 10.0 mi ESE 9.2 mph - N/A   Clear
6:35 PM 53.6 °F - 33.8 °F 47% 29.93 in 10.0 mi ESE 8.1 mph - N/A   Clear
7:15 PM 51.8 °F - 35.6 °F 54% 29.93 in 10.0 mi ESE 9.2 mph - N/A   Clear
7:35 PM 50.0 °F - 35.6 °F 58% 29.92 in 10.0 mi ESE 9.2 mph - N/A   Clear
7:55 PM 50.0 °F - 35.6 °F 58% 29.92 in 10.0 mi ESE 9.2 mph - N/A   Clear
8:15 PM 48.2 °F - 33.8 °F 58% 29.93 in 10.0 mi ESE 10.4 mph - N/A   Clear
8:35 PM 48.2 °F - 35.6 °F 62% 29.92 in 10.0 mi ESE 11.5 mph - N/A   Clear
8:55 PM 46.4 °F 41.5 °F 33.8 °F 62% 29.92 in 10.0 mi ESE 10.4 mph - N/A   Clear
9:15 PM 46.4 °F 41.1 °F 33.8 °F 62% 29.91 in 10.0 mi ESE 11.5 mph - N/A   Clear
9:35 PM 44.6 °F 39.2 °F 33.8 °F 66% 29.90 in 10.0 mi ESE 10.4 mph - N/A   Clear
9:55 PM 44.6 °F 39.7 °F 33.8 °F 66% 29.90 in 10.0 mi ESE 9.2 mph - N/A   Clear
10:15 PM 44.6 °F 41.4 °F 33.8 °F 66% 29.90 in 10.0 mi ESE 5.8 mph - N/A   Clear
10:35 PM 42.8 °F 37.5 °F 32.0 °F 66% 29.89 in 10.0 mi ESE 9.2 mph - N/A   Clear
10:55 PM 42.8 °F 38.6 °F 32.0 °F 66% 29.89 in 10.0 mi East 6.9 mph - N/A   Clear
11:15 PM 42.8 °F 39.3 °F 32.0 °F 66% 29.88 in 10.0 mi ESE 5.8 mph - N/A   Clear
11:35 PM 41.0 °F 36.4 °F 30.2 °F 65% 29.87 in 10.0 mi East 6.9 mph - N/A   Clear
11:55 PM 42.8 °F 38.0 °F 32.0 °F 66% 29.86 in 10.0 mi East 8.1 mph - N/A   Clear